Location: Bruneau Dunes Observatory
(42.9024°N, 115.6902°W)
Time: 10:46:01
(UTC-06:00)

Daily predictions for brighter satellites

Satellite Brightness Start Highest point End
(mag) Time Altitude Azimuth Time Altitude Azimuth Time Altitude Azimuth
Cosmos 724 4.3 21:30:14 10° SSW 21:36:00 89° ESE 21:41:52 10° NNE
ARGOS 4.2 21:31:54 10° SE 21:36:35 31° ENE 21:41:17 10° N
Cosmos 1459 Rocket 4.1 21:31:27 10° S 21:37:30 81° W 21:43:36 10° N
Cosmos 2360 4.4 21:32:08 10° NNW 21:37:48 63° ENE 21:43:27 10° SE
Okean 3 3.6 21:34:41 10° S 21:38:52 56° E 21:43:05 10° NNE
Cosmos 332 Rocket 3.9 21:34:09 10° SSW 21:38:56 85° WNW 21:43:49 10° NNE
Cosmos 2173 Rocket 4.4 21:37:03 10° SSW 21:43:25 75° W 21:49:49 10° N
Cosmos 2061 Rocket 4.2 21:37:26 10° S 21:43:50 88° W 21:50:14 10° N
Cosmos 1300 Rocket 3.5 21:39:49 10° N 21:44:14 81° E 21:48:34 10° S
CENTAUR R/B 4.1 21:43:56 10° ESE 21:45:16 11° E 21:46:37 10° E
Cosmos 1939 Rocket 3.6 21:43:26 10° S 21:47:26 55° W 21:51:32 10° NNW
Okean 1 3.7 21:46:32 10° SSE 21:50:22 43° E 21:54:15 10° NNE
Cosmos 44 Rocket 3.9 21:48:03 10° NW 21:53:09 59° WSW 21:58:15 10° SSE
ATLAS 3B R/B 2.8 21:46:57 10° SSW 21:54:03 65° ESE 22:00:54 10° NE
Shenzhou-11 Module 1.9 21:51:57 10° WSW 21:54:55 69° SSE 21:57:53 10° E
Lacrosse 5 rocket 4.0 21:54:58 10° NNW 21:57:30 15° NNE 21:59:57 10° NE
Spot 2 Rocket 3.6 21:53:21 10° SSE 21:58:24 83° WSW 22:03:29 10° NNW
Cosmos 1500 3.5 21:55:36 10° NNW 21:59:26 68° W 22:03:16 10° S
ISS -3.2 21:57:47 10° SSW 22:00:47 34° SE 22:03:47 10° ENE
Cosmos 1697 Rocket 3.5 21:56:15 10° NW 22:01:43 50° WSW 22:07:07 10° S
Terra 4.1 22:01:12 10° ENE 22:02:06 10° ENE 22:03:01 10° NE
Cosmos 2016 Rocket 4.3 21:58:40 10° SSW 22:04:44 72° W 22:10:54 10° N
Tsikada Rocket 4.1 21:59:46 10° N 22:06:13 80° E 22:12:37 10° S
Meteor 1-18 Rocket 4.3 22:03:57 10° S 22:09:46 82° E 22:15:42 10° NNE
Cosmos 2360 Rocket 4.0 22:06:23 10° N 22:10:22 19° NE 22:14:21 10° E
SL-08 RB Rocket 4.2 22:07:52 13° SE 22:11:33 44° ENE 22:15:53 10° N
Cosmos 1980 Rocket 2.5 22:07:59 10° NNW 22:13:38 70° WSW 22:19:15 10° SSE
MetOp-B 4.4 22:09:06 12° SE 22:13:52 54° ENE 22:19:05 10° N
Cosmos 1570 Rocket 4.0 22:08:53 10° S 22:14:09 65° ESE 22:19:29 10° NNE
Cosmos 1725 Rocket 4.1 22:08:13 10° S 22:14:23 82° W 22:20:38 10° N
Cosmos 1666 2.9 22:10:40 10° N 22:14:29 53° E 22:17:28 15° SSE
Cosmos 1743 3.0 22:12:21 10° N 22:16:07 51° E 22:18:54 17° SSE
Cosmos 1763 Rocket 4.3 22:14:02 11° SSE 22:18:24 31° E 22:23:01 10° NE
Abrixas rocket 3.3 22:17:56 10° SSW 22:20:31 22° SE 22:21:11 21° ESE
USA 238 DEB 4.0 22:16:36 10° SW 22:23:27 75° NW 22:30:27 10° NE
USA 238 4.0 22:16:43 10° SW 22:23:34 76° NW 22:30:33 10° NE
Cosmos 304 Rocket 3.8 22:22:07 10° SSW 22:26:57 85° WNW 22:31:48 10° NNE
Helios 1B rocket 3.9 22:25:12 10° NE 22:28:14 19° E 22:29:07 18° ESE
Cosmos 1340 Rocket 4.1 22:27:06 20° ESE 22:28:28 23° E 22:31:44 10° NE
H-2A R/B 2.0 22:24:49 16° SSE 22:28:44 68° ENE 22:33:43 10° N
Cosmos 1455 Rocket 3.9 22:27:07 10° N 22:31:05 33° ENE 22:33:14 21° SE
Iridium 2 3.8 22:28:41 18° SSE 22:31:18 54° E 22:35:03 10° NNE
Meteor 2-4 Rocket 4.1 22:27:43 16° SSE 22:31:40 41° E 22:36:50 10° NNE
ATLAS CENTAUR R/B 2.5 22:27:36 10° NW 22:31:56 44° WSW 22:35:40 14° S
BREEZE-M DEB (TANK) 3.1 22:32:10 10° WNW 22:34:23 38° SSW 22:36:09 22° SSE
Cosmos 1242 Rocket 2.5 22:30:46 10° N 22:34:27 73° E 22:36:35 23° SSE
deb Kosmos-1763 4.2 22:31:57 13° S 22:35:03 53° ESE 22:38:40 10° NNE
Tiangong 2 1.7 22:36:03 10° SW 22:38:55 32° SSE 22:39:02 32° SSE
Okean 1 Rocket 4.1 22:35:14 10° NNW 22:39:23 44° W 22:43:29 10° SSW
DNEPR-1 R/B 3.9 22:36:03 10° SW 22:40:16 69° NW 22:45:05 10° NNE
Cosmos 1975 Rocket 2.9 22:36:40 11° S 22:40:49 84° E 22:45:10 10° N
Cosmos 2208 Rocket 4.0 22:35:38 10° SSW 22:40:50 84° WNW 22:46:02 10° NNE
Cosmos 1898 Rocket 3.5 22:36:58 10° NNW 22:42:18 83° ENE 22:45:49 22° SSE
Cosmos 1975 3.6 22:42:36 10° NNW 22:46:32 50° W 22:49:51 14° SSW
Resurs 01 Rocket 4.1 22:43:28 10° SW 22:46:32 18° W 22:49:37 10° NW
Meteor 1-13 Rocket 4.3 22:41:22 13° S 22:46:40 67° E 22:52:35 10° NNE
Cosmos 1814 Rocket 4.1 22:46:23 15° S 22:50:34 55° ESE 22:55:45 10° NNE
ERS-1 Rocket 2.9 22:47:59 21° SSE 22:51:22 90° NNE 22:56:25 10° NNW
USA 234 4.1 22:47:09 10° NE 22:53:31 54° NNW 22:59:52 10° WSW
Cosmos 292 Rocket 4.2 22:55:18 29° SSE 22:57:05 40° ESE 23:01:33 10° NE
Cosmos 1515 4.4 22:56:30 32° ESE 22:57:10 35° E 23:00:41 10° NNE
NOSS 3-2 (A) 3.7 22:51:23 10° SW 22:57:16 71° NW 23:03:53 10° NNE
Cosmos 1544 Rocket 3.6 22:53:32 10° N 22:57:57 66° E 22:59:54 32° SSE
Cosmos 2233 Rocket 4.5 22:52:16 10° SSW 22:58:18 60° W 23:04:27 10° N
Meteor 2-20 4.4 22:53:12 10° N 22:59:21 86° E 23:03:28 22° S
NOSS 3-2 (C) 3.4 22:54:44 10° SW 23:00:39 90° NNE 23:07:16 10° NE
Meteor 2-20 Rocket 4.4 22:56:15 10° N 23:02:23 71° E 23:05:57 26° SSE
Cosmos 2322 Rocket 2.1 22:56:56 10° NNW 23:02:36 87° WSW 23:05:39 28° SSE
Cosmos 2150 Rocket 4.1 23:03:02 10° NNW 23:08:28 73° ENE 23:10:55 33° SSE
SL-16 R/B 2.3 23:03:28 10° NNW 23:09:09 74° WSW 23:12:11 28° S
Cosmos 990 Rocket 4.0 23:05:49 10° NNW 23:11:02 76° WSW 23:13:38 30° S
Nadezhda 4 Rocket 4.5 23:07:34 10° N 23:13:37 47° ENE 23:16:22 30° SE
Cosmos 1536 Rocket 3.7 23:12:43 39° SSE 23:14:03 57° E 23:18:26 10° NNE
SPOT 5 2.6 23:12:31 36° SSE 23:14:19 86° WSW 23:18:50 10° NNW
ARGOS 4.4 23:12:18 13° SSW 23:16:43 36° W 23:21:42 10° NNW
SJ 16-02 2.3 23:13:48 10° N 23:17:52 34° ENE 23:19:00 30° E
Helios 1A 3.1 23:17:11 36° S 23:18:47 68° WSW 23:22:56 10° NNW
Landsat 7 3.7 23:18:32 38° SSE 23:20:23 82° ENE 23:25:10 10° NNW
Timation 2 Rocket 4.4 23:15:55 10° SW 23:21:48 61° WNW 23:27:50 10° NNE
CZ-2C R/B 3.7 23:22:06 32° ESE 23:24:01 46° ENE 23:29:16 10° N
Cosmos 2298 Rocket 4.1 23:22:26 10° NNW 23:27:43 69° WSW 23:29:54 35° S
Shenzhou-11 Module 2.8 23:27:58 10° W 23:30:09 44° W 23:30:09 44° W
BREEZE-M R/B 3.7 23:29:53 10° W 23:32:48 33° NNW 23:34:17 17° NE
Aureole 2 Rocket 2.4 23:30:23 10° NNW 23:33:00 61° NW 23:33:00 61° NW
CENTAUR R/B 2.4 23:29:22 15° SSW 23:34:22 73° ESE 23:41:12 10° NE
Cosmos 2084 3.6 23:31:03 10° SW 23:35:20 68° NW 23:39:25 10° NNE
ISS -2.2 23:34:11 10° W 23:37:14 36° NNW 23:40:18 10° NE
Cosmos 2034 Rocket 3.9 23:34:18 30° S 23:37:32 86° E 23:43:43 10° N
Lacrosse 5 rocket 2.5 23:33:47 10° NW 23:37:49 37° NNE 23:39:13 28° ENE
Terra 1.7 23:37:46 49° SSE 23:39:03 83° ENE 23:43:50 10° NNW
Cosmos 1464 Rocket 4.4 23:39:11 19° SSW 23:43:52 63° W 23:50:13 10° N
ATLAS 3B R/B 4.4 23:38:51 10° WSW 23:45:11 33° NW 23:51:20 10° NNE
CARTOSAT-1 3.6 23:46:03 54° SSW 23:46:54 70° WSW 23:51:13 10° NNW
YAOGAN 11 4.0 23:49:29 63° SSE 23:50:13 88° ENE 23:54:44 10° NNW
Meteor 1-23 Rocket 4.4 23:48:54 28° SSW 23:51:51 67° WNW 23:57:25 10° N
Spot 4 4.4 23:51:17 40° E 23:52:07 44° ENE 23:56:42 10° N
